Regional Weather Roundup
Issued by NWS Sioux Falls, SD

Home | Current Version | Previous Version | Text Only | Print | Product List | Glossary On
Versions: 1 2 3 4 5 6 7 8 9 10 11 12 13 14 15 16 17 18 19 20 21 22 23 24 25 26 27 28 29 30 31 32 33 34 35 36 37 38 39 40 41 42 43 44 45 46 47 48 49 50
000
ASUS43 KFSD 280310
RWRFSD

WEATHER ROUNDUP FOR SE SOUTH DAKOTA/SW MINNESOTA/NW IOWA
NATIONAL WEATHER SERVICE SIOUX FALLS SD
1000 PM CDT THU JUL 27 2017

NOTE: "FAIR" INDICATES FEW OR NO CLOUDS BELOW 12,000 FEET WITH NO
SIGNIFICANT WEATHER AND OR OBSTRUCTIONS TO VISIBILITY.


SDZ038>040-050-052>070-280400-
SOUTHEAST SOUTH DAKOTA

CITY           SKY/WX    TMP DP  RH WIND       PRES   REMARKS
BROOKINGS      PTCLDY    73  62  68 E6        30.08R
CHAMBERLAIN    CLOUDY    76  63  64 SE5       30.04S
HURON          CLOUDY    72  64  76 E5        30.03S
MADISON        FAIR      68  66  94 E3        30.08R
MITCHELL       MOCLDY    72  66  81 E6        30.04S
SIOUX FALLS    PTCLDY    70  63  78 E3        30.06R
WINNER         FAIR      76  59  55 SE9       30.04S
YANKTON        CLOUDY    72  64  76 NE6       30.04S
$$

MNZ071-072-080-081-089-090-097-098-280400-
SOUTHWEST MINNESOTA

CITY           SKY/WX    TMP DP  RH WIND       PRES   REMARKS
FAIRMONT       CLEAR     69  64  84 N5        30.05R
JACKSON        CLEAR     66  61  82 CALM      30.07R
LUVERNE        CLEAR     68  61  77 CALM      30.07R
MARSHALL       PTCLDY    70  65  84 CALM      30.06R
MONTEVIDEO     PTCLDY    70  59  68 CALM      30.06R
PIPESTONE      CLEAR     72  61  68 CALM      30.08R
REDWOOD FALLS  CLEAR     73  62  68 CALM      30.04S
TRACY          CLOUDY    71  65  83 CALM      30.07R
WINDOM         CLEAR     66  63  88 CALM      30.07R
WORTHINGTON    CLEAR     68  61  78 N6        30.08R
$$

IAZ001>003-012>014-020>022-031-032-NEZ013-014-SDZ071-280400-
NORTHWEST IOWA

CITY           SKY/WX    TMP DP  RH WIND       PRES   REMARKS
CHEROKEE       CLEAR     72  64  76 CALM      30.04R
DENISON        PTCLDY    70  66  88 NE3       30.04R
ESTHERVILLE    CLEAR     66  64  93 N5        30.04R
ORANGE CITY    CLEAR     73  63  68 NE3       30.06R
SHELDON        CLEAR     66  63  88 NE3       30.05R
SIOUX CITY     CLEAR     76  62  62 NE6       30.03R
SPENCER        CLEAR     69  63  81 NE6       30.05R
STORM LAKE     CLEAR     70  64  83 NE7       30.05R
$$

ABBREVIATIONS USED IN REMARKS
   TC - TEMPERATURE IN CELSIUS
  WCI - WIND CHILL INDEX
   HX - HEAT INDEX
  VSB - VISIBILITY




USA.gov is the U.S. government's official web portal to all federal, state and local government web resources and services.